Location: Newark
(45.9456°N, 15.4064°E)
Time: 20:37:03
(UTC+00:00)

SR - Pass Details

Date: 31 January 2020
Orbit: 575 x 881 km, 66.7° (Epoch: 19 February)

Event Time Altitude Azimuth Distance (km) Brightness Sun altitude
Rises 06:15:11 0° 310° (NW) 3,329 - -2.0°
Exits shadow 06:15:43 - 307° (NW) 3,168 ? -1.9°
Reaches altitude 10° 06:19:18 10° 281° (W) 2,317 ? -1.4°
Maximum altitude 06:21:13 12° 259° (W) 2,140 ? -1.0°
Drops below altitude 10° 06:23:05 10° 238° (WSW) 2,235 ? -0.8°
Sets 06:26:53 0° 207° (SSW) 3,067 ? -0.2°
